Location: Peach Mountain Observatory
(42.3967°N, 83.9367°W)
Time: 14:50:54
(UTC-05:00)

S-56A Canister/Altair - Pass Details

Date: 31 January 2020
Orbit: 633 x 2499 km, 38.9° (Epoch: 19 February)

Event Time Altitude Azimuth Distance (km) Brightness Sun altitude
Rises 22:23:03 0° 275° (W) 3,929 11.7 -50.1°
Enters shadow 22:25:52 - 271° (W) 2,851 10.8 -50.5°
Reaches altitude 10° 22:26:16 10° 270° (W) 2,704 - -50.6°
Maximum altitude 22:32:04 47° 198° (SSW) 1,004 - -51.5°
Drops below altitude 10° 22:36:32 10° 124° (SE) 2,078 - -52.2°
Sets 22:38:43 0° 118° (ESE) 2,931 - -52.6°
